CW1532 New London CT US current weather conditions

sailwx.info

Wind from 252

Air temperature 16.1° C
Dewpoint 13.6° C

Last reported at 2020-Sep-24 12:30 UTC.
Time now 2020-Sep-25 14:44 UTC

Location: N 41°21' W 072°08'.
View on Google Maps.

See reports from other nearby stations

  
Tides and Currents Weather Stations Pressure Air Temp Water Temp Dewpoint Dewpoint Depression Visibility Wind Speed Wind Dir Waves Ship Positions
date/time (UTC)wind fromknots sea level pressurealtimeterstation pressurevisibilityair tempwater tempwave heightnotes
2020-Sep-24 12:30 252 16.1
2020-Sep-24 12:15 252 15.0
2020-Sep-24 12:01 252 13.9
2020-Sep-24 11:47 252 12.2
2020-Sep-24 11:31 252 11.1
2020-Sep-24 11:16 252 10.0
2020-Sep-24 11:01 252 10.0
2020-Sep-24 10:45 252 10.0
2020-Sep-24 10:33 252 10.6
2020-Sep-24 10:16 252 10.6
2020-Sep-24 10:01 252 10.6
2020-Sep-24 09:46 252 11.1
2020-Sep-24 09:31 252 11.7
2020-Sep-24 09:17 252 11.7
2020-Sep-24 09:01 252 11.7
2020-Sep-24 08:46 252 11.7
2020-Sep-24 08:31 252 11.7
2020-Sep-24 08:16 252 11.7
2020-Sep-24 08:01 252 11.1
2020-Sep-24 07:46 252 11.1
2020-Sep-24 07:31 252 11.7
2020-Sep-24 07:17 252 12.2
2020-Sep-24 07:01 252 12.2
2020-Sep-24 06:46 252 12.8
2020-Sep-24 06:32 252 12.8
2020-Sep-24 06:16 252 12.8
2020-Sep-24 06:00 252 12.8
2020-Sep-24 05:45 252 12.8
2020-Sep-24 05:31 252 12.8
2020-Sep-24 05:15 252 12.8
2020-Sep-24 05:00 252 12.8
2020-Sep-24 04:45 252 12.8
2020-Sep-24 04:30 252 13.3
2020-Sep-24 04:16 252 13.3
2020-Sep-24 04:00 252 13.3
2020-Sep-24 03:45 252 13.9
2020-Sep-24 03:30 252 13.9
2020-Sep-24 03:15 252 14.4
2020-Sep-24 02:45 252 15.6
2020-Sep-24 02:30 252 15.0
2020-Sep-24 02:15 252 15.6
2020-Sep-24 01:30 252 16.7
2020-Sep-24 01:15 252 16.7
2020-Sep-24 01:01 252 17.2
2020-Sep-24 00:46 252 17.8
2020-Sep-24 00:15 252 18.3
2020-Sep-24 00:02 252 18.9
2020-Sep-23 23:46 252 20.0
2020-Sep-23 23:33 252 21.1
2020-Sep-23 23:01 252 22.8
2020-Sep-23 22:46 252 23.3
2020-Sep-23 22:31 249 23.9
2020-Sep-23 22:17 257 24.4
2020-Sep-23 22:01 254 25.0
2020-Sep-23 21:46 298 0 gusting 3 25.6
2020-Sep-23 21:31 257 0 gusting 6 26.1
2020-Sep-23 21:16 170 3 gusting 9 25.6
2020-Sep-23 21:01 264 25.6
2020-Sep-23 20:46 255 26.7
2020-Sep-23 20:31 286 1 gusting 7 26.1
2020-Sep-23 20:17 318 26.1
2020-Sep-23 20:00 198 26.1
2020-Sep-23 19:46 317 1 gusting 13 26.1
2020-Sep-23 19:31 273 1 gusting 9 26.7
2020-Sep-23 19:17 250 3 gusting 9 26.1
2020-Sep-23 19:01 284 1 gusting 6 25.0
2020-Sep-23 18:45 236 3 gusting 8 23.3
2020-Sep-23 18:31 215 3 gusting 10 22.8
2020-Sep-23 18:16 299 3 gusting 8 22.2
2020-Sep-23 18:00 222 2 gusting 13 21.7
2020-Sep-23 17:46 222 3 gusting 14 21.7
2020-Sep-23 17:31 275 4 gusting 12 21.1
2020-Sep-23 17:16 284 4 gusting 13 21.1
2020-Sep-23 17:00 261 3 gusting 8 21.7
2020-Sep-23 16:46 241 2 gusting 9 22.2
2020-Sep-23 16:30 263 5 gusting 10 22.2
2020-Sep-23 16:16 248 4 gusting 9 22.2
2020-Sep-23 16:00 261 2 gusting 7 21.7
2020-Sep-23 15:45 272 2 gusting 7 21.7
2020-Sep-23 15:30 264 4 gusting 9 20.6
2020-Sep-23 15:15 259 2 gusting 9 20.0
2020-Sep-23 15:00 270 2 gusting 10 19.4
2020-Sep-23 14:45 234 4 gusting 10 18.9
2020-Sep-23 14:30 254 1 gusting 10 18.3
2020-Sep-23 14:15 255 5 gusting 8 17.8